Time,TemperatureF,DewpointF,PressureIn,WindDirection,WindDirectionDegrees,WindSpeedMPH,WindSpeedGustMPH,Humidity,HourlyPrecipIn,Conditions,Clouds,dailyrainin,SoftwareType,DateUTC
2013-04-12 00:03:00,62.0,61.0,29.83,WSW,251,1.0,7.0,97,0.50,,,1.37,,2013-04-12 04:03:00,
2013-04-12 00:13:00,62.0,61.0,29.83,WSW,251,1.0,7.0,97,0.50,,,1.37,,2013-04-12 04:13:00,
2013-04-12 00:23:00,62.0,61.0,29.79,West,271,0.0,5.0,97,0.22,,,1.49,,2013-04-12 04:23:00,
2013-04-12 00:33:00,62.0,61.0,29.79,West,271,0.0,5.0,97,0.22,,,1.49,,2013-04-12 04:33:00,
2013-04-12 00:43:00,62.0,61.0,29.79,West,271,0.0,5.0,97,0.22,,,1.49,,2013-04-12 04:43:00,
2013-04-12 00:53:00,61.0,60.0,29.75,East,81,0.0,2.0,97,0.15,,,1.52,,2013-04-12 04:53:00,
2013-04-12 01:03:00,61.0,60.0,29.75,East,81,0.0,2.0,97,0.15,,,1.52,,2013-04-12 05:03:00,
2013-04-12 01:12:00,61.0,60.0,29.75,East,81,0.0,2.0,97,0.15,,,1.52,,2013-04-12 05:12:00,
2013-04-12 01:23:00,61.0,60.0,29.75,East,81,0.0,2.0,97,0.15,,,1.52,,2013-04-12 05:23:00,
2013-04-12 01:32:00,61.0,60.0,29.75,East,81,0.0,2.0,97,0.15,,,1.52,,2013-04-12 05:32:00,
2013-04-12 09:53:00,53.0,51.0,29.88,West,273,1.0,4.0,93,0.00,,,1.69,,2013-04-12 13:53:00,
2013-04-12 10:03:00,53.0,51.0,29.88,West,273,1.0,4.0,93,0.00,,,1.69,,2013-04-12 14:03:00,
2013-04-12 10:13:00,53.0,51.0,29.88,West,273,1.0,4.0,93,0.00,,,1.69,,2013-04-12 14:13:00,
2013-04-12 10:23:00,54.0,52.0,29.89,NW,307,0.0,5.0,92,0.00,,,1.69,,2013-04-12 14:23:00,
2013-04-12 10:33:00,54.0,52.0,29.89,NW,307,0.0,5.0,92,0.00,,,1.69,,2013-04-12 14:33:00,
2013-04-12 10:43:00,54.0,52.0,29.89,NW,307,0.0,5.0,92,0.00,,,1.69,,2013-04-12 14:43:00,
2013-04-12 10:54:00,55.0,52.0,29.90,WNW,291,1.0,6.0,88,0.00,,,1.69,,2013-04-12 14:54:00,
2013-04-12 11:03:00,55.0,52.0,29.90,WNW,291,1.0,6.0,88,0.00,,,1.69,,2013-04-12 15:03:00,
2013-04-12 11:12:00,55.0,52.0,29.90,WNW,291,1.0,6.0,88,0.00,,,1.69,,2013-04-12 15:12:00,
2013-04-12 11:22:00,55.0,52.0,29.90,WNW,291,1.0,6.0,88,0.00,,,1.69,,2013-04-12 15:22:00,
2013-04-12 16:33:00,66.0,40.0,29.90,NW,314,4.0,10.0,39,0.00,,,1.69,,2013-04-12 20:33:00,
2013-04-12 16:52:00,66.0,40.0,29.90,NW,314,4.0,10.0,39,0.00,,,1.69,,2013-04-12 20:52:00,
2013-04-12 17:03:00,66.0,40.0,29.90,NW,314,4.0,10.0,39,0.00,,,1.69,,2013-04-12 21:03:00,
2013-04-12 17:12:00,66.0,40.0,29.90,NW,314,4.0,10.0,39,0.00,,,1.69,,2013-04-12 21:12:00,
2013-04-12 17:22:00,66.0,40.0,29.90,NW,314,4.0,10.0,39,0.00,,,1.69,,2013-04-12 21:22:00,
2013-04-12 19:22:00,64.0,40.0,29.92,WNW,290,3.0,6.0,42,0.00,,,1.57,,2013-04-12 23:22:00,
2013-04-12 19:32:00,64.0,40.0,29.92,WNW,290,3.0,6.0,42,0.00,,,1.57,,2013-04-12 23:32:00,
2013-04-12 19:42:00,64.0,40.0,29.92,WNW,290,3.0,6.0,42,0.00,,,1.57,,2013-04-12 23:42:00,
2013-04-12 19:52:00,64.0,40.0,29.92,WNW,290,3.0,6.0,42,0.00,,,1.57,,2013-04-12 23:52:00,
2013-04-12 20:02:00,64.0,40.0,29.92,WNW,290,3.0,6.0,42,0.00,,,1.57,,2013-04-13 00:02:00,
2013-04-12 21:33:00,57.0,39.0,29.97,WSW,254,1.0,3.0,51,0.00,,,1.09,,2013-04-13 01:33:00,
2013-04-12 21:52:00,57.0,39.0,29.97,WSW,254,1.0,3.0,51,0.00,,,1.09,,2013-04-13 01:52:00,
2013-04-12 22:02:00,57.0,39.0,29.97,WSW,254,1.0,3.0,51,0.00,,,1.09,,2013-04-13 02:02:00,
2013-04-12 22:12:00,57.0,39.0,29.97,WSW,254,1.0,3.0,51,0.00,,,1.09,,2013-04-13 02:12:00,
2013-04-12 22:23:00,57.0,39.0,29.97,WSW,254,1.0,3.0,51,0.00,,,1.09,,2013-04-13 02:23:00,
2013-04-12 22:53:00,56.0,40.0,29.99,WNW,298,1.0,6.0,55,0.00,,,1.01,,2013-04-13 02:53:00,
2013-04-12 23:03:00,56.0,40.0,29.99,WNW,298,1.0,6.0,55,0.00,,,1.01,,2013-04-13 03:03:00,
2013-04-12 23:12:00,56.0,40.0,29.99,WNW,298,1.0,6.0,55,0.00,,,1.01,,2013-04-13 03:12:00,
2013-04-12 23:23:00,55.0,40.0,29.99,NW,304,0.0,4.0,56,0.00,,,0.42,,2013-04-13 03:23:00,
2013-04-12 23:33:00,55.0,40.0,29.99,NW,304,0.0,4.0,56,0.00,,,0.42,,2013-04-13 03:33:00,
2013-04-12 23:43:00,55.0,40.0,29.99,NW,304,0.0,4.0,56,0.00,,,0.42,,2013-04-13 03:43:00,
2013-04-12 23:53:00,54.0,40.0,29.98,WNW,296,0.0,7.0,58,0.00,,,0.42,,2013-04-13 03:53:00,